Location: Bauerbach
(50.4985°N, 10.3912°E)
Time: 20:55:20
(UTC+00:00)

Cosmos 1763 Rocket - Pass Details

Date: 13 January 2026
Orbit: 729 x 773 km, 74.0° (Epoch: 18 February)

Event Time Altitude Azimuth Distance (km) Brightness Sun altitude
Exits shadow 06:16:45 - 333° (NNW) 2,804 6.0 -8.9°
Reaches altitude 10° 06:18:12 10° 332° (NNW) 2,237 5.5 -8.7°
Maximum altitude 06:23:13 70° 250° (WSW) 782 3.4 -8.0°
Drops below altitude 10° 06:28:14 10° 167° (SSE) 2,233 6.5 -7.3°
Sets 06:30:35 0° 165° (SSE) 3,156 7.3 -6.9°
